Location: Unspecified
(0.0000°N, 0.0000°E)
Time: 04:42:53
(UTC+00:00)

DMSP 5D-2 F13 DEB - Visible Passes

Search period start: 14 February 2026 00:00
Search period end: 24 February 2026 00:00
Orbit: 782 x 826 km, 98.9° (Epoch: 9 February)

Date Brightness Start Highest point End Pass type
(mag) Time Alt. Az. Time Alt. Az. Time Alt. Az.
14 Feb ? 18:34:42 10° SE 18:38:55 25° ENE 18:43:05 10° NNE visible
14 Feb ? 20:14:44 10° SSW 20:18:21 19° WSW 20:21:57 10° WNW visible
15 Feb ? 19:48:04 10° S 19:52:53 39° WSW 19:57:39 10° NW visible
16 Feb ? 19:22:12 10° S 19:27:23 82° WSW 19:32:32 10° NNW visible
17 Feb ? 18:56:54 10° SSE 19:01:52 48° ENE 19:06:48 10° N visible
18 Feb ? 18:32:19 10° SE 18:36:21 23° ENE 18:40:22 10° NNE visible
18 Feb ? 20:11:59 10° SSW 20:15:48 21° WSW 20:19:36 10° NW visible
19 Feb ? 19:45:25 10° S 19:50:17 43° WSW 19:55:08 10° NNW visible
20 Feb ? 19:19:34 10° SSE 19:24:45 89° W 19:29:54 10° NNW visible
21 Feb ? 18:54:19 10° SSE 18:59:12 43° ENE 19:04:04 10° N visible
21 Feb ? 20:37:32 10° WSW 20:38:37 11° WSW 20:39:43 10° W visible
22 Feb ? 18:29:49 10° SE 18:33:40 21° ENE 18:37:30 10° NNE visible
22 Feb ? 20:09:06 10° SSW 20:13:06 23° WSW 20:17:06 10° NW visible
23 Feb ? 19:42:37 10° S 19:47:34 47° WSW 19:52:29 10° NNW visible
